Newport, RI

2:29 AM EDT on May 26, 2017 (GMT -0400)
Newport State

Weather History for KUUU - June, 2013

Change the Weather History Date:

Wednesday, June 19, 2013

  Actual Average Record
Temperature  
Mean Temperature 65 °F -  
Max Temperature 73 °F 73 °F 88 °F (1975)
Min Temperature 57 °F 57 °F 47 °F (1965)
Growing Degree Days 15 (Base 50)    
Moisture  
Dew Point 53 °F    
Average Humidity 73    
Maximum Humidity 97    
Minimum Humidity 41    
Precipitation  
Precipitation 0.00 in - - ()
Sea Level Pressure  
Sea Level Pressure 29.98 in    
Wind  
Wind Speed 9 mph (NNE)    
Max Wind Speed 13 mph    
Max Gust Speed 21 mph    
Visibility 10 miles    
Events Rain    
Averages and records for this station are not official NWS values.
T = Trace of Precipitation, MM = Missing Value Source: NWS Daily Summary

Daily Weather History Graph

Daily Weather History Graph

Search for Another Location

Airport or City:

Trip Planner

Search our weather history database for the weather conditions in past years. The results will help you decide how hot, cold, wet, or windy it might be!

Date:

Astronomy

Jun. 19, 2013 Rise Set
Actual Time 5:10 AM EDT 8:22 PM EDT
Civil Twilight 4:36 AM EDT 8:56 PM EDT
Nautical Twilight 3:53 AM EDT 9:40 PM EDT
Astronomical Twilight 3:00 AM EDT 10:32 PM EDT
Moon 4:09 PM EDT (6/19) 1:56 AM EDT (6/19)
Length of Visible Light 16h 19m
Length of Day
15h 11m
Waxing Gibbous, 80% of the Moon is Illuminated
Jun 19
Waxing Gibbous
Jun 23
Full
Jun 30
Last Quarter
Jul 8
New
Jul 15
First Quarter

Hourly Weather History & Observations

Time (EDT) Temp. Dew Point Humidity Pressure Visibility Wind Dir Wind Speed Gust Speed Precip Events Conditions
12:17 AM 59.0 °F 57.2 °F 94% 29.87 in 10.0 mi North 8.1 mph - 0.00 in Rain Light Rain
12:35 AM 59.0 °F 57.2 °F 94% 29.87 in 9.0 mi North 6.9 mph - 0.00 in Rain Light Rain
12:53 AM 57.9 °F 57.0 °F 97% 29.87 in 9.0 mi North 8.1 mph - 0.00 in Rain Light Rain
1:53 AM 57.9 °F 55.9 °F 93% 29.86 in 10.0 mi North 11.5 mph 20.7 mph 0.00 in Rain Light Rain
2:42 AM 57.2 °F 55.4 °F 94% 29.87 in 10.0 mi North 10.4 mph 17.3 mph 0.00 in   Mostly Cloudy
2:53 AM 57.9 °F 55.0 °F 90% 29.87 in 10.0 mi North 11.5 mph - 0.00 in   Mostly Cloudy
3:53 AM 57.9 °F 55.9 °F 93% 29.88 in 10.0 mi North 9.2 mph 18.4 mph N/A   Overcast
4:53 AM 57.9 °F 55.0 °F 90% 29.87 in 10.0 mi North 4.6 mph - N/A   Overcast
5:53 AM 57.0 °F 54.0 °F 89% 29.88 in 10.0 mi North 9.2 mph - N/A   Overcast
6:53 AM 57.0 °F 52.0 °F 83% 29.91 in 10.0 mi North 11.5 mph 16.1 mph N/A   Clear
7:53 AM 60.1 °F 51.1 °F 72% 29.94 in 10.0 mi North 11.5 mph - N/A   Clear
8:53 AM 62.1 °F 52.0 °F 70% 29.96 in 10.0 mi NNE 11.5 mph 17.3 mph N/A   Clear
9:53 AM 64.9 °F 54.0 °F 68% 29.98 in 10.0 mi North 12.7 mph 18.4 mph N/A   Partly Cloudy
10:53 AM 68.0 °F 53.1 °F 59% 29.99 in 10.0 mi North 9.2 mph 20.7 mph N/A   Clear
11:53 AM 70.0 °F 53.1 °F 55% 29.99 in 10.0 mi North 10.4 mph - N/A   Partly Cloudy
12:53 PM 72.0 °F 51.1 °F 48% 30.00 in 10.0 mi NNE 11.5 mph 18.4 mph N/A   Clear
1:53 PM 73.0 °F 48.0 °F 41% 30.01 in 10.0 mi NE 8.1 mph - N/A   Scattered Clouds
2:53 PM 71.1 °F 46.0 °F 41% 30.02 in 10.0 mi North 3.5 mph - N/A   Scattered Clouds
3:53 PM 70.0 °F 53.1 °F 55% 30.03 in 10.0 mi SSE 9.2 mph - N/A   Clear
4:53 PM 69.1 °F 53.1 °F 57% 30.04 in 10.0 mi SSE 6.9 mph - N/A   Clear
5:53 PM 66.9 °F 53.1 °F 61% 30.04 in 10.0 mi South 11.5 mph - N/A   Clear
6:53 PM 66.9 °F 50.0 °F 54% 30.07 in 10.0 mi South 4.6 mph - N/A   Clear
7:53 PM 64.0 °F 51.1 °F 63% 30.08 in 10.0 mi South 9.2 mph - N/A   Clear
8:53 PM 62.1 °F 55.0 °F 78% 30.10 in 10.0 mi South 4.6 mph - N/A   Scattered Clouds
9:53 PM 62.1 °F 52.0 °F 70% 30.14 in 10.0 mi SSW 5.8 mph - N/A   Clear
10:53 PM 61.0 °F 53.1 °F 75% 30.14 in 10.0 mi South 4.6 mph - N/A   Clear
11:53 PM 60.1 °F 54.0 °F 80% 30.15 in 10.0 mi South 4.6 mph - N/A   Clear